When you browse on this site, cookies collect data to enhance your experience and personalize the content and advertising you see.
Visit our Privacy Policy to learn more. By continuing to use the site, you agree to this use of cookies and data.
  • In Netherlands
  • List of Countries
  • For 7 days
  • Water Temperature
  • Weather Map
  • Weather Widgets
  • user-avatar
    Login

    Hourly Weather Maun

    Today, 28 May, Thursday

    Time Temperature Precipitation Wind Pressure Humidity
    00:00 +11°C° 0 mm 1 mps 684 mmHg 21%
    01:00 +10°C° 0 mm 2 mps 683 mmHg 21%
    02:00 +9°C° 0 mm 2 mps 683 mmHg 21%
    03:00 +9°C° 0 mm 2 mps 683 mmHg 21%
    04:00 +8°C° 0 mm 2 mps 683 mmHg 21%
    05:00 +8°C° 0 mm 2 mps 683 mmHg 21%
    06:00 +8°C° 0 mm 2 mps 684 mmHg 21%
    07:00 +9°C° 0 mm 2 mps 684 mmHg 20%
    08:00 +10°C° 0 mm 2 mps 685 mmHg 20%
    09:00 +15°C° 0 mm 2 mps 685 mmHg 17%
    10:00 +19°C° 0 mm 2 mps 686 mmHg 13%
    11:00 +23°C° 0 mm 2 mps 687 mmHg 10%
    12:00 +25°C° 0 mm 2 mps 686 mmHg 10%
    13:00 +27°C° 0 mm 1 mps 686 mmHg 9%
    14:00 +29°C° 0 mm 1 mps 685 mmHg 9%
    15:00 +28°C° 0 mm 1 mps 685 mmHg 9%
    16:00 +27°C° 0 mm 1 mps 684 mmHg 10%
    17:00 +26°C° 0 mm 1 mps 684 mmHg 10%
    18:00 +23°C° 0 mm 1 mps 683 mmHg 11%
    19:00 +20°C° 0 mm 1 mps 683 mmHg 13%
    20:00 +16°C° 0 mm 2 mps 683 mmHg 14%
    21:00 +15°C° 0 mm 2 mps 683 mmHg 15%
    22:00 +14°C° 0 mm 1 mps 683 mmHg 15%
    23:00 +13°C° 0 mm 1 mps 683 mmHg 15%

    Tomorrow, 29 May, Friday

    Time Temperature Precipitation Wind Pressure Humidity
    00:00 +12°C° 0 mm 1 mps 683 mmHg 16%
    01:00 +12°C° 0 mm 1 mps 682 mmHg 16%
    02:00 +11°C° 0 mm 1 mps 682 mmHg 17%
    03:00 +11°C° 0 mm 1 mps 682 mmHg 16%
    04:00 +11°C° 0 mm 1 mps 682 mmHg 16%
    05:00 +11°C° 0 mm 1 mps 682 mmHg 16%
    06:00 +11°C° 0 mm 1 mps 683 mmHg 16%
    07:00 +12°C° 0 mm 1 mps 683 mmHg 16%
    08:00 +13°C° 0 mm 1 mps 684 mmHg 16%
    09:00 +16°C° 0 mm 1 mps 684 mmHg 13%
    10:00 +20°C° 0 mm 2 mps 685 mmHg 10%
    11:00 +25°C° 0 mm 2 mps 686 mmHg 8%
    12:00 +27°C° 0 mm 2 mps 685 mmHg 7%
    13:00 +28°C° 0 mm 2 mps 685 mmHg 6%
    14:00 +30°C° 0 mm 2 mps 684 mmHg 6%
    15:00 +29°C° 0 mm 2 mps 684 mmHg 6%
    16:00 +28°C° 0 mm 2 mps 683 mmHg 7%
    17:00 +27°C° 0 mm 2 mps 683 mmHg 7%
    18:00 +24°C° 0 mm 2 mps 683 mmHg 8%
    19:00 +20°C° 0 mm 2 mps 683 mmHg 9%
    20:00 +17°C° 0 mm 2 mps 682 mmHg 10%
    21:00 +16°C° 0 mm 2 mps 682 mmHg 11%
    22:00 +16°C° 0 mm 2 mps 683 mmHg 11%
    23:00 +15°C° 0 mm 2 mps 683 mmHg 11%

    Day after tomorrow, 30 May, Saturday

    Time Temperature Precipitation Wind Pressure Humidity
    00:00 +14°C° 0 mm 2 mps 683 mmHg 12%
    01:00 +14°C° 0 mm 2 mps 682 mmHg 12%
    02:00 +13°C° 0 mm 2 mps 682 mmHg 12%
    03:00 +13°C° 0 mm 2 mps 682 mmHg 13%
    04:00 +12°C° 0 mm 2 mps 682 mmHg 14%
    05:00 +12°C° 0 mm 2 mps 682 mmHg 15%
    06:00 +12°C° 0 mm 2 mps 683 mmHg 16%
    07:00 +13°C° 0 mm 2 mps 683 mmHg 17%
    08:00 +13°C° 0 mm 2 mps 684 mmHg 18%
    09:00 +17°C° 0 mm 3 mps 685 mmHg 15%
    10:00 +22°C° 0 mm 3 mps 686 mmHg 12%
    11:00 +27°C° 0 mm 3 mps 687 mmHg 9%
    12:00 +28°C° 0 mm 3 mps 686 mmHg 8%
    13:00 +30°C° 0 mm 3 mps 685 mmHg 8%
    14:00 +31°C° 0 mm 3 mps 685 mmHg 8%
    15:00 +30°C° 0 mm 2 mps 685 mmHg 9%
    16:00 +30°C° 0 mm 2 mps 684 mmHg 10%
    17:00 +29°C° 0 mm 2 mps 684 mmHg 10%
    18:00 +26°C° 0 mm 2 mps 684 mmHg 13%
    19:00 +23°C° 0 mm 2 mps 684 mmHg 15%
    20:00 +19°C° 0 mm 3 mps 684 mmHg 18%
    21:00 +18°C° 0 mm 3 mps 684 mmHg 18%
    22:00 +17°C° 0 mm 2 mps 684 mmHg 19%
    23:00 +16°C° 0 mm 2 mps 684 mmHg 20%

    31 May, Sunday

    Time Temperature Precipitation Wind Pressure Humidity
    00:00 +16°C° 0 mm 2 mps 684 mmHg 20%
    01:00 +14°C° 0 mm 3 mps 684 mmHg 21%
    02:00 +14°C° 0 mm 3 mps 684 mmHg 21%
    03:00 +13°C° 0 mm 3 mps 684 mmHg 26%
    04:00 +12°C° 0 mm 3 mps 684 mmHg 31%
    05:00 +12°C° 0 mm 3 mps 684 mmHg 36%
    06:00 +12°C° 0 mm 3 mps 685 mmHg 37%
    07:00 +13°C° 0 mm 3 mps 685 mmHg 39%
    08:00 +13°C° 0 mm 4 mps 686 mmHg 40%
    09:00 +18°C° 0 mm 4 mps 686 mmHg 36%
    10:00 +22°C° 0 mm 4 mps 687 mmHg 31%
    11:00 +26°C° 0 mm 4 mps 687 mmHg 26%
    12:00 +28°C° 0 mm 3 mps 687 mmHg 23%
    13:00 +29°C° 0 mm 3 mps 686 mmHg 20%
    14:00 +31°C° 0 mm 3 mps 686 mmHg 18%
    15:00 +31°C° 0 mm 3 mps 686 mmHg 18%
    16:00 +30°C° 0 mm 3 mps 685 mmHg 19%
    17:00 +29°C° 0 mm 3 mps 685 mmHg 20%
    18:00 +27°C° 0 mm 3 mps 685 mmHg 25%
    19:00 +24°C° 0 mm 3 mps 685 mmHg 31%
    20:00 +20°C° 0 mm 3 mps 685 mmHg 36%
    21:00 +19°C° 0 mm 3 mps 685 mmHg 38%
    22:00 +19°C° 0 mm 3 mps 685 mmHg 40%
    23:00 +18°C° 0 mm 3 mps 685 mmHg 42%

    1 June, Monday

    Time Temperature Precipitation Wind Pressure Humidity
    00:00 +17°C° 0 mm 3 mps 685 mmHg 43%
    01:00 +17°C° 0 mm 3 mps 685 mmHg 45%
    02:00 +16°C° 0 mm 3 mps 685 mmHg 46%
    03:00 +14°C° 0 mm 3 mps 685 mmHg 51%
    04:00 +14°C° 0 mm 3 mps 685 mmHg 57%
    05:00 +13°C° 0 mm 3 mps 685 mmHg 62%
    06:00 +14°C° 0 mm 3 mps 685 mmHg 63%
    07:00 +14°C° 0 mm 3 mps 686 mmHg 64%
    08:00 +15°C° 0 mm 4 mps 686 mmHg 64%
    09:00 +19°C° 0 mm 4 mps 687 mmHg 55%
    10:00 +22°C° 0 mm 4 mps 687 mmHg 46%
    11:00 +27°C° 0 mm 4 mps 688 mmHg 36%
    12:00 +28°C° 0 mm 3 mps 687 mmHg 32%
    13:00 +29°C° 0 mm 3 mps 687 mmHg 28%
    14:00 +30°C° 0 mm 3 mps 686 mmHg 24%
    15:00 +30°C° 0 mm 3 mps 686 mmHg 25%
    16:00 +30°C° 0 mm 3 mps 685 mmHg 25%
    17:00 +29°C° 0 mm 3 mps 685 mmHg 25%
    18:00 +27°C° 0 mm 3 mps 685 mmHg 30%
    19:00 +24°C° 0 mm 3 mps 685 mmHg 36%
    20:00 +20°C° 0 mm 3 mps 685 mmHg 41%
    21:00 +20°C° 0 mm 3 mps 685 mmHg 41%
    22:00 +19°C° 0 mm 3 mps 685 mmHg 41%
    23:00 +18°C° 0 mm 2 mps 685 mmHg 41%

    2 June, Tuesday

    Time Temperature Precipitation Wind Pressure Humidity
    00:00 +18°C° 0 mm 3 mps 685 mmHg 41%
    01:00 +17°C° 0 mm 3 mps 685 mmHg 42%
    02:00 +17°C° 0 mm 3 mps 685 mmHg 42%
    03:00 +16°C° 0 mm 3 mps 685 mmHg 46%
    04:00 +14°C° 0 mm 3 mps 685 mmHg 50%
    05:00 +14°C° 0 mm 2 mps 684 mmHg 54%
    06:00 +14°C° 0 mm 3 mps 685 mmHg 54%
    07:00 +14°C° 0 mm 3 mps 685 mmHg 54%
    08:00 +15°C° 0 mm 4 mps 686 mmHg 54%
    09:00 +19°C° 0 mm 4 mps 686 mmHg 46%
    10:00 +22°C° 0 mm 4 mps 687 mmHg 38%
    11:00 +27°C° 0 mm 4 mps 687 mmHg 30%
    12:00 +28°C° 0 mm 4 mps 686 mmHg 26%
    13:00 +29°C° 0 mm 3 mps 686 mmHg 22%
    14:00 +31°C° 0 mm 3 mps 685 mmHg 18%
    15:00 +30°C° 0 mm 3 mps 685 mmHg 19%
    16:00 +29°C° 0 mm 4 mps 684 mmHg 20%
    17:00 +29°C° 0 mm 4 mps 684 mmHg 20%
    18:00 +26°C° 0 mm 4 mps 684 mmHg 25%
    19:00 +22°C° 0 mm 3 mps 683 mmHg 30%
    20:00 +19°C° 0 mm 3 mps 683 mmHg 34%
    21:00 +19°C° 0 mm 3 mps 683 mmHg 36%
    22:00 +18°C° 0 mm 2 mps 683 mmHg 37%
    23:00 +17°C° 0 mm 2 mps 684 mmHg 38%
    Show more